User: anonymous
Location: The Jewett Observatory
(46.7288°N, 117.1525°W)
Time: 05:10:53
(UTC-07:00)
Language:

Cosmos 1844 Rocket - Orbit

View from above orbital plane
View from above orbital plane
View from above satellite
View from above satellite

Ground track
Ground track

The orbit data is extracted from the following two-line orbital elements,

1 17974U 87041B   14242.14297399 -.00000005  00000-0  21202-4 0  1882
2 17974 071.0065 263.0394 0012843 162.9058 253.4891 14.17109453411884
Epoch (UTC): 30 August 2014 03:25:52
Eccentricity: 0.0012843
inclination: 71.0065°
perigee height: 826 km
apogee height: 844 km
right ascension of ascending node: 263.0394°
argument of perigee: 162.9058°
revolutions per day: 14.17109453
mean anomaly at epoch: 253.4891°
orbit number at epoch: 41188

The dashed part of the orbit path shows where the satellite is in the earth's shadow,  

DLR